Gulkana, AK

4:13 AM AKDT on July 28, 2017 (GMT -0800)
Gulkana

Weather History for PAGK - November, 2013

Change the Weather History Date:

Sunday, November 10, 2013

  Actual Average Record
Temperature  
Mean Temperature 20 °F -  
Max Temperature 37 °F 17 °F 43 °F (1979)
Min Temperature 3 °F 0 °F -39 °F (1955)
Degree Days  
Heating Degree Days 45    
Moisture  
Dew Point 25 °F    
Average Humidity 81    
Maximum Humidity 93    
Minimum Humidity 63    
Precipitation  
Precipitation 0.35 in - - ()
Sea Level Pressure  
Sea Level Pressure 29.82 in    
Wind  
Wind Speed 13 mph (South)    
Max Wind Speed 25 mph    
Max Gust Speed 36 mph    
Visibility 9 miles    
Events Rain , Snow    
Averages and records for this station are not official NWS values.
T = Trace of Precipitation, MM = Missing Value Source: NWS Daily Summary

Daily Weather History Graph

Daily Weather History Graph

Search for Another Location

Airport or City:

Trip Planner

Search our weather history database for the weather conditions in past years. The results will help you decide how hot, cold, wet, or windy it might be!

Date:

Astronomy

Nov. 10, 2013 Rise Set
Actual Time 8:41 AM AKST 4:09 PM AKST
Civil Twilight 7:49 AM AKST 5:01 PM AKST
Nautical Twilight 6:54 AM AKST 5:56 PM AKST
Astronomical Twilight 6:02 AM AKST 6:48 PM AKST
Moon 2:14 PM AKST (11/10) No Moon Set
Length of Visible Light 9h 12m
Length of Day
7h 27m
First Quarter, 57% of the Moon is Illuminated
Nov 10
First Quarter
Nov 17
Full
Nov 25
Last Quarter
Dec 2
New
Dec 9
First Quarter

Hourly Weather History & Observations

Time (AKST) Temp. Windchill Dew Point Humidity Pressure Visibility Wind Dir Wind Speed Gust Speed Precip Events Conditions
12:53 AM 10.9 °F 2.9 °F 7.0 °F 84% 30.13 in 10.0 mi NNE 4.6 mph - N/A   Scattered Clouds
1:53 AM 12.9 °F 6.9 °F 8.1 °F 81% 30.09 in 10.0 mi NW 3.5 mph - N/A   Overcast
3:53 AM 14.0 °F 5.1 °F 9.0 °F 80% 30.07 in 10.0 mi North 5.8 mph - N/A   Overcast
4:53 AM 15.1 °F 6.4 °F 10.0 °F 80% 30.03 in 10.0 mi NNW 5.8 mph - N/A   Overcast
5:53 AM 17.1 °F 10.0 °F 10.9 °F 77% 29.99 in 10.0 mi NNW 4.6 mph - N/A   Overcast
6:53 AM 26.1 °F 16.2 °F 19.0 °F 75% 29.94 in 10.0 mi SSE 10.4 mph - N/A   Overcast
7:53 AM 32.0 °F 20.1 °F 24.1 °F 73% 29.92 in 10.0 mi SSE 19.6 mph 29.9 mph N/A   Overcast
8:53 AM 32.0 °F 18.6 °F 24.1 °F 73% 29.90 in 10.0 mi SSE 25.3 mph 29.9 mph N/A   Overcast
9:53 AM 30.9 °F 17.8 °F 24.1 °F 76% 29.89 in 10.0 mi South 23.0 mph 29.9 mph N/A   Overcast
10:53 AM 32.0 °F 19.8 °F 25.0 °F 75% 29.86 in 10.0 mi South 20.7 mph 31.1 mph N/A   Mostly Cloudy
11:53 AM 33.1 °F 21.9 °F 26.1 °F 75% 29.85 in 10.0 mi SSE 18.4 mph 27.6 mph N/A   Clear
12:53 PM 34.0 °F 23.0 °F 28.0 °F 79% 29.83 in 10.0 mi South 18.4 mph 34.5 mph N/A   Overcast
1:53 PM 35.1 °F 24.5 °F 28.9 °F 78% 29.82 in 10.0 mi SSE 18.4 mph 24.2 mph N/A   Overcast
2:53 PM 36.0 °F 25.3 °F 30.0 °F 79% 29.80 in 10.0 mi SSE 19.6 mph 28.8 mph N/A   Partly Cloudy
3:53 PM 36.0 °F 24.2 °F 30.9 °F 82% 29.77 in 10.0 mi SSE 24.2 mph 35.7 mph N/A   Clear
4:53 PM 35.1 °F 24.8 °F 30.9 °F 85% 29.77 in 10.0 mi South 17.3 mph 24.2 mph N/A   Partly Cloudy
5:53 PM 36.0 °F 25.0 °F 30.9 °F 82% 29.73 in 10.0 mi South 20.7 mph 27.6 mph N/A   Overcast
6:53 PM 36.0 °F 25.6 °F 32.0 °F 86% 29.71 in 10.0 mi SSE 18.4 mph 29.9 mph N/A   Overcast
7:53 PM 37.0 °F 27.0 °F 32.0 °F 82% 29.70 in 10.0 mi South 18.4 mph 27.6 mph 0.00 in   Overcast
8:53 PM 36.0 °F 24.7 °F 32.0 °F 86% 29.70 in 10.0 mi South 21.9 mph 29.9 mph 0.00 in   Overcast
9:53 PM 36.0 °F 25.6 °F 33.1 °F 89% 29.70 in 10.0 mi South 18.4 mph 25.3 mph 0.01 in Rain Light Rain
10:06 PM 36.0 °F 25.6 °F 33.1 °F 89% 29.62 in 10.0 mi South 18.4 mph 27.6 mph 0.00 in Rain Light Rain
10:49 PM 35.6 °F 25.5 °F 33.8 °F 93% 29.63 in 10.0 mi South 17.3 mph 27.6 mph 0.01 in Rain Light Rain
10:53 PM 36.0 °F 26.7 °F 33.1 °F 89% 29.70 in 10.0 mi South 15.0 mph - 0.01 in Rain Light Rain
11:15 PM 33.1 °F 24.9 °F 30.9 °F 92% 29.65 in 10.0 mi West 10.4 mph 20.7 mph 0.01 in Rain Light Rain
11:27 PM 30.0 °F 21.7 °F 28.0 °F 92% 29.65 in 1.8 mi West 9.2 mph - 0.01 in Snow Light Snow
11:38 PM 28.9 °F 21.1 °F 27.0 °F 92% 29.66 in 1.5 mi WNW 8.1 mph - 0.02 in Snow Light Snow
11:53 PM 28.0 °F 20.8 °F 26.1 °F 92% 29.75 in 1.2 mi West 6.9 mph - 0.05 in Snow Light Snow